Weather in Krasnoholm

Russia / Orenburg Oblast     51°35′38″N   54°09′29″E
temp.,
°C
wind,
m/s
gust,
m/s
humid.,
%
clouds,
%
prec.,
mm/h
press.,
hPa
HPBL,
m
26 february, fri
fri2623:00−22ssw5890100 0.0 1031286
02:00−20s61097100 0.6 1028363
05:00−17s51195100 1.1 1026473
08:00−17sse61193100 0.2 1023437
11:00−15sse61092100 0.6 1022578
14:00−13sse6988100 0.2 1022647
17:00−13se5888100 0.3 1021534
20:00−16ese499473 0.0 1020152
27 february, sat
sat2723:00−15se5119367 0.0 1018215
02:00−12sse61192100 0.0 1014323
05:00−10sse91594100 1.3 1010477
08:00−7s81594100 4.9 1005602
11:00−3s81295100 5.8 1003348
14:00+1wsw511100100 0.3 1002365
17:00+1wsw611100100 0.4 1002515
20:000sw51098100 0.1 1002465
28 february, sun
sun2823:000wsw5998100 0.6 1002456
02:000sw5994100 0.2 1001506
05:00−1sw5119797 0.4 1001430
08:00−1sw61197100 1.2 1000565
11:00−8wsw7992100 2.4 1001503
14:00−10wsw6993100 0.1 1003417
17:00−6w61093100 0.3 1006555
20:00−9wsw5995100 0.1 1009282
1 march, mon
mon123:00−12wsw469795 0.2 1011134
02:00−14wsw349792 0.1 101370
05:00−14w359691 0.1 1015118
08:00−14wnw349679 0.1 1016122
11:00−13wnw349489 0.3 1018255
14:00−11wnw349199 0.1 1019401
17:00−12wnw3592100 0.1 1020399
20:00−17wnw349571 0.0 102230
2 march, tue
tue223:00−20wnw239744 0.0 102320
02:00−22w23972 0.0 102320
05:00−23w349910 0.0 102332
08:00−24wsw3410076 0.0 102248
11:00−21sw469774 0.0 1021207
14:00−17ssw699377 0.0 1019331
17:00−15ssw7119289 0.0 1016409
20:00−11ssw71394100 0.8 1013546